Change the Weather History Date:

Tuesday, October 8, 2013

  Actual Average Record
Temperature  
Mean Temperature 42 °F -  
Max Temperature 46 °F 47 °F 59 °F (1993)
Min Temperature 39 °F 39 °F 31 °F (1987)
Degree Days  
Heating Degree Days 22    
Moisture  
Dew Point 41 °F    
Average Humidity 88    
Maximum Humidity 93    
Minimum Humidity 81    
Precipitation  
Precipitation 0.14 in - - ()
Sea Level Pressure  
Sea Level Pressure 30.05 in    
Wind  
Wind Speed 2 mph (East)    
Max Wind Speed 6 mph    
Max Gust Speed -    
Visibility 8 miles    
Events Fog    
Averages and records for this station are not official NWS values.
T = Trace of Precipitation, MM = Missing Value Source: NWS Daily Summary

Daily Weather History Graph

Daily Weather History Graph

Search for Another Location

Airport or City:

Trip Planner

Search our weather history database for the weather conditions in past years. The results will help you decide how hot, cold, wet, or windy it might be!

Date:

Astronomy

Oct. 08, 2013 Rise Set
Actual Time 7:10 AM AKDT 6:06 PM AKDT
Civil Twilight 6:32 AM AKDT 6:44 PM AKDT
Nautical Twilight 5:48 AM AKDT 7:28 PM AKDT
Astronomical Twilight 5:03 AM AKDT 8:13 PM AKDT
Moon 11:58 AM AKDT (10/8) 8:02 PM AKDT (10/8)
Length of Visible Light 12h 11m
Length of Day
10h 55m
Waxing Crescent, 17% of the Moon is Illuminated
Oct 8
Waxing Crescent
Oct 11
First Quarter
Oct 18
Full
Oct 26
Last Quarter
Nov 3
New

Hourly Weather History & Observations

Time (AKDT) Temp. Windchill Dew Point Humidity Pressure Visibility Wind Dir Wind Speed Gust Speed Precip Events Conditions
12:16 AM 42.8 °F 41.1 °F 39.2 °F 87% 29.99 in 10.0 mi SE 3.5 mph - N/A   Mostly Cloudy
12:56 AM 42.8 °F 41.1 °F 39.2 °F 87% 30.01 in 10.0 mi ESE 3.5 mph - N/A   Mostly Cloudy
1:16 AM 42.8 °F - 39.2 °F 87% 30.01 in 10.0 mi Calm Calm - N/A   Overcast
1:36 AM 41.0 °F 39.0 °F 37.4 °F 87% 30.03 in 10.0 mi ESE 3.5 mph - N/A   Overcast
2:36 AM 41.0 °F 38.0 °F 39.2 °F 93% 30.05 in 10.0 mi SE 4.6 mph - N/A   Overcast
2:56 AM 42.8 °F 40.1 °F 39.2 °F 87% 30.05 in 10.0 mi SE 4.6 mph - N/A   Overcast
3:16 AM 42.8 °F 41.1 °F 39.2 °F 87% 30.06 in 10.0 mi ESE 3.5 mph - N/A   Overcast
3:56 AM 39.2 °F - 37.4 °F 93% 30.08 in 10.0 mi Calm Calm - N/A   Overcast
4:16 AM 39.2 °F - 37.4 °F 93% 30.09 in 10.0 mi Calm Calm - N/A   Overcast
5:16 AM 39.2 °F - 37.4 °F 93% 30.11 in 10.0 mi Calm Calm - N/A   Overcast
5:36 AM 39.2 °F - 37.4 °F 93% 30.11 in 10.0 mi Calm Calm - N/A   Overcast
5:56 AM 39.2 °F - 37.4 °F 93% 30.11 in 10.0 mi Calm Calm - N/A   Overcast
6:16 AM 41.0 °F 39.0 °F 39.2 °F 93% 30.11 in 10.0 mi ESE 3.5 mph - N/A   Overcast
6:56 AM 41.0 °F - 39.2 °F 93% 30.11 in 10.0 mi Calm Calm - N/A   Mostly Cloudy
7:16 AM 41.0 °F - 39.2 °F 93% 30.11 in 10.0 mi Calm Calm - N/A   Mostly Cloudy
7:55 AM 42.8 °F - 39.2 °F 87% 30.11 in 7.0 mi Calm Calm - N/A Fog Patches of Fog
7:56 AM 42.8 °F - 39.2 °F 87% 30.11 in 7.0 mi Calm Calm - N/A   Overcast
8:16 AM 42.8 °F - 39.2 °F 87% 30.12 in 7.0 mi Calm Calm - N/A   Overcast
8:56 AM 42.8 °F - 39.2 °F 87% 30.12 in 7.0 mi Calm Calm - N/A   Overcast
9:16 AM 42.8 °F - 39.2 °F 87% 30.12 in 7.0 mi Calm Calm - N/A   Overcast
9:36 AM 42.8 °F - 39.2 °F 87% 30.12 in 7.0 mi Calm Calm - N/A   Overcast
10:16 AM 42.8 °F - 39.2 °F 87% 30.11 in 5.0 mi Calm Calm - N/A   Overcast
10:36 AM 42.8 °F - 41.0 °F 93% 30.12 in 5.0 mi Calm Calm - N/A   Overcast
10:56 AM 42.8 °F - 41.0 °F 93% 30.12 in 7.0 mi Calm Calm - N/A   Overcast
11:16 AM 44.6 °F - 41.0 °F 87% 30.12 in 7.0 mi Calm Calm - N/A   Overcast
11:36 AM 44.6 °F - 41.0 °F 87% 30.13 in 7.0 mi Calm Calm - N/A   Overcast
11:56 AM 44.6 °F - 41.0 °F 87% 30.13 in 10.0 mi Calm Calm - N/A   Overcast
12:16 PM 44.6 °F - 41.0 °F 87% 30.14 in 10.0 mi Calm Calm - N/A   Overcast
12:36 PM 44.6 °F - 42.8 °F 93% 30.14 in 10.0 mi Calm Calm - N/A   Overcast
12:56 PM 44.6 °F - 42.8 °F 93% 30.13 in 10.0 mi Calm Calm - N/A   Overcast
1:16 PM 46.4 °F 45.2 °F 42.8 °F 87% 30.13 in 10.0 mi NE 3.5 mph - N/A   Overcast
1:36 PM 46.4 °F - 42.8 °F 87% 30.12 in 10.0 mi Calm Calm - N/A   Overcast
1:54 PM 46.4 °F - 42.8 °F 87% 30.12 in 10.0 mi Calm Calm - N/A   Overcast
2:16 PM 46.4 °F - 42.8 °F 87% 30.11 in 10.0 mi Calm Calm - N/A   Overcast
2:36 PM 46.4 °F - 42.8 °F 87% 30.10 in 10.0 mi Calm Calm - N/A   Overcast
2:56 PM 46.4 °F - 42.8 °F 87% 30.10 in 10.0 mi Calm Calm - N/A   Overcast
3:16 PM 46.4 °F - 42.8 °F 87% 30.09 in 10.0 mi Calm Calm - N/A   Overcast
3:36 PM 46.4 °F - 41.0 °F 81% 30.08 in 10.0 mi Calm Calm - N/A   Overcast
3:56 PM 46.4 °F - 42.8 °F 87% 30.07 in 10.0 mi Calm Calm - N/A   Overcast
4:36 PM 46.4 °F - 42.8 °F 87% 30.08 in 10.0 mi Calm Calm - N/A   Overcast
4:56 PM 46.4 °F - 42.8 °F 87% 30.07 in 6.0 mi Calm Calm - 0.01 in   Overcast
5:16 PM 46.4 °F - 42.8 °F 87% 30.05 in 6.0 mi Calm Calm - N/A   Overcast
5:56 PM 46.4 °F - 41.0 °F 81% 30.03 in 10.0 mi Calm Calm - 0.01 in   Overcast
6:16 PM 46.4 °F - 42.8 °F 87% 30.02 in 10.0 mi Calm Calm - N/A   Overcast
6:36 PM 46.4 °F - 42.8 °F 87% 30.00 in 10.0 mi Calm Calm - N/A   Overcast
6:56 PM 46.4 °F - 42.8 °F 87% 30.00 in 7.0 mi Calm Calm - N/A   Overcast
7:16 PM 46.4 °F - 42.8 °F 87% 29.99 in 7.0 mi Calm Calm - N/A   Overcast
7:36 PM 46.4 °F 45.2 °F 42.8 °F 87% 29.98 in 7.0 mi North 3.5 mph - N/A   Overcast
7:56 PM 46.4 °F 44.3 °F 42.8 °F 87% 29.98 in 4.0 mi NW 4.6 mph - N/A   Overcast
8:16 PM 44.6 °F 42.2 °F 42.8 °F 93% 29.97 in 4.0 mi NW 4.6 mph - 0.01 in   Overcast
8:36 PM 44.6 °F 43.1 °F 42.8 °F 93% 29.95 in 4.0 mi North 3.5 mph - 0.01 in   Overcast
8:56 PM 46.4 °F - 42.8 °F 87% 29.93 in 6.0 mi Calm Calm - 0.02 in   Overcast
9:36 PM 46.4 °F 45.2 °F 42.8 °F 87% 29.91 in 6.0 mi East 3.5 mph - 0.01 in   Overcast
9:56 PM 46.4 °F - 42.8 °F 87% 29.89 in 5.0 mi Calm Calm - 0.04 in   Overcast
10:16 PM 44.6 °F 42.2 °F 42.8 °F 93% 29.87 in 10.0 mi North 4.6 mph - 0.01 in   Overcast
10:56 PM 46.4 °F 44.3 °F 42.8 °F 87% 29.83 in 8.0 mi ESE 4.6 mph - 0.03 in   Overcast
11:56 PM 46.4 °F 43.5 °F 42.8 °F 87% 29.78 in 10.0 mi ESE 5.8 mph - 0.03 in   Overcast